This demonstration page uses our WeatherBlox Daily Observations layout. Learn more.

Left ArrowRight Arrow

Hourly Observations for November 11, 2018

Temp ( °F °C ) Dew Point ( °F °C ) Humidity (%) Winds ( mph kmh ) Pressure ( in mb ) Visibility ( mi km ) Precip ( " mm )
12:33 am 00:33 Cloudy 23 -5 21 -6.1 92 92 SW 7 11 30.42 1030 10 16 N/A
12:53 am 00:53 Mostly Cloudy 22 -5.6 21 -6.1 96 96 WSW 7 11 30.37 1028 10 16 N/A
1:53 am 01:53 Mostly Cloudy 22 -5.6 20 -6.7 92 92 SW 9 15 30.36 1028 10 16 N/A
2:53 am 02:53 Cloudy 24 -4.4 22 -5.6 91 91 SW 10 17 30.37 1028 10 16 N/A
3:53 am 03:53 Cloudy 26 -3.3 23 -5 88 88 SW 9 15 30.36 1028 10 16 N/A
4:53 am 04:53 Cloudy 27 -2.8 24 -4.4 89 89 SW 9 15 30.37 1028 10 16 N/A
5:53 am 05:53 Cloudy 27 -2.8 25 -3.9 92 92 WSW 7 11 30.38 1029 10 16 N/A
6:33 am 06:33 Cloudy with Light Snow 28 -2.2 25 -3.9 88 88 WSW 8 13 30.45 1031 8 13 N/A
6:51 am 06:51 Cloudy with Light Snow 28 -2 25 -4 86 86 W 7 11 30.42 1030 3 4 N/A
6:53 am 06:53 Cloudy with Light Snow 28 -2.2 25 -3.9 88 88 W 8 13 30.39 1029 3 4 N/A
7:12 am 07:12 Cloudy with Light Snow 27 -3 25 -4 93 93 W 6 9 30.45 1031 2 3 N/A
7:24 am 07:24 Cloudy with Light Snow 27 -2.8 25 -3.9 92 92 W 6 9 30.45 1031 3 5 0.01 0.25
7:53 am 07:53 Cloudy 27 -2.8 24 -4.4 89 89 W 6 9 30.42 1030 10 16 0.01 0.25
8:53 am 08:53 Cloudy 28 -2.2 25 -3.9 88 88 WNW 8 13 30.44 1031 10 16 N/A
9:53 am 09:53 Cloudy 30 -1.1 24 -4.4 79 79 NNW 9 15 30.47 1032 10 16 N/A
10:53 am 10:53 Partly Cloudy 28 -2.2 22 -5.6 78 78 N 9 15 30.52 1033 10 16 N/A
11:53 am 11:53 Mostly Cloudy 28 -2.2 21 -6.1 75 75 N 10 17 30.54 1034 10 16 N/A
12:31 pm 12:31 Mostly Cloudy 29 -1.7 20 -6.7 69 69 NNW 7 11 30.53 1034 10 16 N/A
12:45 pm 12:45 Mostly Cloudy 29 -1.7 20 -6.7 69 69 VRB 5 7 30.53 1034 10 16 N/A
12:53 pm 12:53 Mostly Cloudy 29 -1.7 19 -7.2 66 66 N 8 13 30.54 1034 10 16 N/A
1:00 pm 13:00 Partly Cloudy 29 -1.7 19 -7.2 66 66 N 9 15 30.56 1035 10 16 N/A
1:53 pm 13:53 Cloudy 30 -1.1 17 -8.3 58 58 NNW 10 17 30.56 1035 10 16 N/A
2:53 pm 14:53 Cloudy 30 -1.1 16 -8.9 56 56 NNW 10 17 30.58 1036 10 16 N/A
3:53 pm 15:53 Sunny 28 -2.2 13 -10.6 53 53 NW 13 20 30.61 1037 10 16 N/A
4:53 pm 16:53 Clear 23 -5 14 -10 68 68 NW 14 22 30.65 1038 10 16 N/A
5:53 pm 17:53 Clear 20 -6.7 14 -10 78 78 NW 10 17 30.68 1039 10 16 N/A
6:53 pm 18:53 Clear 17 -8.3 14 -10 88 88 WNW 5 7 30.69 1039 10 16 N/A
7:53 pm 19:53 Mostly Cloudy 14 -10 11 -11.7 88 88 WSW 6 9 30.72 1040 10 16 N/A
8:53 pm 20:53 Cloudy 16 -8.9 13 -10.6 88 88 WSW 5 7 30.72 1040 10 16 N/A
9:53 pm 21:53 Mostly Cloudy 16 -8.9 13 -10.6 88 88 SW 7 11 30.72 1040 10 16 N/A
10:53 pm 22:53 Mostly Cloudy 12 -11.1 9 -12.8 87 87 SW 9 15 30.73 1041 10 16 N/A
11:22 pm 23:22 Partly Cloudy 12 -11.1 9 -12.8 87 87 SW 9 15 30.83 1044 10 16 N/A
11:53 pm 23:53 Clear 11 -11.7 9 -12.8 92 92 SW 10 17 30.71 1040 10 16 N/A

Powered by AerisWeather